Weather History for Grand Rapids, MI

Change the Weather History Date:

Wednesday, June 19, 2013

  Actual Average Record
Temperature  
Mean Temperature 62 °F 70 °F  
Max Temperature 76 °F 80 °F 98 °F (1953)
Min Temperature 47 °F 59 °F 45 °F (1926)
Degree Days  
Heating Degree Days 3 1  
Month to date heating degree days 40 38  
Since 1 June heating degree days 40 38  
Since 1 July heating degree days 6311 6478  
Cooling Degree Days 0 6  
Month to date cooling degree days 46 75  
Year to date cooling degree days 128 122  
Since 1 June cooling degree days 46 75  
Growing Degree Days 10 (Base 50)    
Moisture  
Dew Point 44 °F    
Average Humidity 56    
Maximum Humidity 80    
Minimum Humidity 31    
Precipitation  
Precipitation 0.00 in 0.13 in 3.15 in (2009)
Month to date precipitation 3.77 2.43  
Year to date precipitation 26.46 16.01  
Snow  
Snow 0.00 in 0.00 in 0.00 in (2007)
Month to date snowfall 0.0 0.0  
Since 1 June snowfall 0.0 0.0  
Since 1 July snowfall 66.0 74.9  
Snow Depth 0.00 in    
Sea Level Pressure  
Sea Level Pressure 30.15 in    
Wind  
Wind Speed 4 mph (ENE)    
Max Wind Speed 10 mph    
Max Gust Speed -    
Visibility 10 miles    
Events      
T = Trace of Precipitation, MM = Missing Value Source: NWS Daily Summary

Daily Weather History Graph

Daily Weather History Graph

Search for Another Location

Airport:

Trip Planner

Search our weather history database for the weather conditions in past years. The results will help you decide how hot, cold, wet, or windy it might be!

Date:

Astronomy

Jun. 19, 2013 Rise Set
Actual Time 6:03 AM EDT 9:23 PM EDT
Civil Twilight 5:27 AM EDT 9:59 PM EDT
Nautical Twilight 4:42 AM EDT 10:45 PM EDT
Astronomical Twilight 3:45 AM EDT 11:41 PM EDT
Moon 5:12 PM EDT (6/19) 2:52 AM EDT (6/19)
Length of Visible Light 16h 31m
Length of Day
15h 20m
Waxing Gibbous, 80% of the Moon is Illuminated
Jun 19
Waxing Gibbous
Jun 23
Full
Jun 30
Last Quarter
Jul 8
New
Jul 15
First Quarter

Hourly Weather History & Observations

Time (EDT) Temp. Dew Point Humidity Pressure Visibility Wind Dir Wind Speed Gust Speed Precip Events Conditions
12:53 AM 55.0 °F 44.1 °F 67% 30.11 in 10.0 mi East 4.6 mph - N/A   Clear
1:53 AM 53.1 °F 43.0 °F 69% 30.11 in 10.0 mi East 5.8 mph - N/A   Clear
2:53 AM 52.0 °F 44.1 °F 74% 30.12 in 10.0 mi ENE 4.6 mph - N/A   Clear
3:53 AM 50.0 °F 43.0 °F 77% 30.13 in 10.0 mi NE 4.6 mph - N/A   Clear
4:53 AM 48.0 °F 42.1 °F 80% 30.15 in 10.0 mi NE 3.5 mph - N/A   Clear
5:53 AM 48.9 °F 42.1 °F 77% 30.17 in 10.0 mi Calm Calm - N/A   Clear
6:53 AM 48.9 °F 43.0 °F 80% 30.18 in 10.0 mi NE 3.5 mph - N/A   Clear
7:53 AM 53.1 °F 44.1 °F 71% 30.18 in 10.0 mi ENE 4.6 mph - N/A   Clear
8:53 AM 59.0 °F 42.1 °F 53% 30.19 in 10.0 mi ENE 10.4 mph - N/A   Clear
9:53 AM 62.1 °F 43.0 °F 50% 30.19 in 10.0 mi ESE 8.1 mph - N/A   Clear
10:53 AM 64.9 °F 44.1 °F 47% 30.19 in 10.0 mi ENE 5.8 mph - N/A   Clear
11:53 AM 66.9 °F 42.1 °F 40% 30.18 in 10.0 mi Variable 3.5 mph - N/A   Partly Cloudy
12:53 PM 69.1 °F 42.1 °F 38% 30.19 in 10.0 mi East 8.1 mph - N/A   Partly Cloudy
1:53 PM 70.0 °F 43.0 °F 38% 30.16 in 10.0 mi Variable 3.5 mph - N/A   Partly Cloudy
2:53 PM 72.0 °F 42.1 °F 34% 30.15 in 10.0 mi ESE 4.6 mph - N/A   Partly Cloudy
3:53 PM 73.9 °F 41.0 °F 30% 30.14 in 10.0 mi Calm Calm - N/A   Partly Cloudy
4:53 PM 75.0 °F 43.0 °F 32% 30.13 in 10.0 mi SE 3.5 mph - N/A   Partly Cloudy
5:53 PM 75.0 °F 44.1 °F 33% 30.11 in 10.0 mi Variable 3.5 mph - N/A   Clear
6:53 PM 73.9 °F 43.0 °F 33% 30.11 in 10.0 mi SSE 3.5 mph - N/A   Clear
7:53 PM 73.9 °F 44.1 °F 34% 30.11 in 10.0 mi Calm Calm - N/A   Clear
8:53 PM 72.0 °F 42.1 °F 34% 30.11 in 10.0 mi SW 3.5 mph - N/A   Partly Cloudy
9:53 PM 66.9 °F 46.0 °F 47% 30.13 in 10.0 mi WNW 5.8 mph - N/A   Partly Cloudy
10:53 PM 66.0 °F 46.9 °F 50% 30.14 in 10.0 mi Calm Calm - N/A   Clear
11:53 PM 63.0 °F 48.0 °F 58% 30.14 in 10.0 mi North 3.5 mph - N/A   Clear